EST,Max TemperatureF,Mean TemperatureF,Min TemperatureF,Max Dew PointF,MeanDew PointF,Min DewpointF,Max Humidity, Mean Humidity, Min Humidity, Max Sea Level PressureIn, Mean Sea Level PressureIn, Min Sea Level PressureIn, Max VisibilityMiles, Mean VisibilityMiles, Min VisibilityMiles, Max Wind SpeedMPH, Mean Wind SpeedMPH, Max Gust SpeedMPH,PrecipitationIn, CloudCover, Events, WindDirDegrees
2014-2-1,63,52,40,45,30,20,61,45,28,30.05,29.95,29.86,10,10,10,25,10,32,T,8,Rain,188
2014-2-2,54,42,29,49,33,27,93,88,82,30.22,30.11,29.92,10,3,1,18,10,23,0.84,8,Rain-Snow,357
2014-2-3,36,31,25,27,23,19,92,72,52,30.35,30.24,30.11,10,5,0,16,6,20,0.16,6,Fog-Snow,360
2014-2-4,33,29,25,32,25,20,92,82,72,30.35,30.11,29.80,8,4,0,18,8,23,1.43,8,Fog-Rain-Snow,56
2014-2-5,34,30,26,32,25,19,96,89,81,30.42,30.09,29.75,10,5,2,22,10,26,0.07,8,Rain-Snow,282
2014-2-6,27,19,11,22,17,2,81,78,74,30.51,30.46,30.40,10,6,2,14,8,15,T,7,Snow,310
2014-2-7,23,15,6,12,4,-2,76,65,54,30.54,30.47,30.38,10,10,10,10,3,13,0.00,4,,24
2014-2-8,29,24,18,27,19,12,88,78,67,30.38,30.27,30.16,10,6,1,8,3,10,0.03,8,Snow,84
2014-2-9,33,29,24,28,24,19,92,78,63,30.29,30.18,30.09,10,4,1,16,6,21,0.04,8,Snow,296
2014-2-10,26,20,14,18,8,3,81,63,45,30.43,30.36,30.27,10,8,7,15,8,17,T,6,,3
2014-2-11,27,17,6,11,4,-1,76,59,42,30.52,30.45,30.39,10,9,7,13,6,18,0.00,3,,31
2014-2-12,38,25,12,20,12,5,76,57,38,30.39,30.19,30.01,10,9,7,9,4,9,0.00,3,,29
2014-2-13,43,31,19,20,15,11,68,48,27,29.97,29.86,29.73,10,9,6,14,5,20,0.00,3,,279
2014-2-14,40,33,26,34,28,19,92,70,48,29.85,29.71,29.62,10,5,1,26,9,33,0.31,7,Rain-Snow,306
2014-2-15,31,25,19,23,17,14,77,68,58,30.18,30.09,29.89,10,7,2,22,7,28,0.01,7,Snow,258
2014-2-16,39,33,26,27,24,19,78,71,64,30.28,30.13,30.00,9,7,2,15,8,17,T,7,Snow,286
2014-2-17,45,35,25,43,31,19,89,77,64,30.28,29.99,29.73,10,6,1,29,11,38,0.51,7,Rain-Thunderstorm,214
2014-2-18,58,47,35,39,30,26,82,56,30,30.15,30.02,29.81,10,10,9,18,10,24,0.00,4,,191
2014-2-19,58,52,46,49,38,30,89,64,38,30.05,29.94,29.75,10,10,8,17,8,25,0.00,5,,241
2014-2-20,72,58,44,59,48,30,78,66,53,29.98,29.72,29.53,10,9,2,38,15,47,0.28,8,Rain-Thunderstorm,183
2014-2-21,51,46,40,34,23,14,71,47,22,30.02,29.91,29.74,10,10,10,28,14,35,0.00,2,,237
2014-2-22,64,51,37,32,21,17,58,39,20,30.10,30.01,29.93,10,10,10,20,9,24,0.00,4,,214
2014-2-23,44,36,28,34,30,15,89,74,58,30.25,30.12,30.02,10,8,0,20,9,25,0.06,5,Fog-Rain-Snow,357
2014-2-24,42,32,22,15,12,7,63,44,25,30.36,30.28,30.21,10,10,10,14,6,17,0.00,3,,316
2014-2-25,39,33,27,19,16,11,58,51,44,30.25,30.19,30.14,10,10,4,17,8,22,T,8,Snow,334
2014-2-26,29,23,17,20,9,1,81,57,33,30.26,30.13,29.99,10,9,2,21,10,26,0.01,5,Snow,299
2014-2-27,34,27,20,11,3,-7,57,38,19,30.18,30.03,29.90,10,10,10,21,11,25,0.00,0,,300
2014-2-28,45,31,17,10,5,1,56,38,19,30.26,30.16,30.06,10,10,10,13,6,16,0.00,5,,86